ボアッティーニ彗星

C/2008 S3 ( Boattini )

English version
Home page
Total 6,336 html files since Dec. 4, 1995
Updated on November 30, 2008

---------------------------------------------------------------------

・ プロフィール

発見日 2008年9月29日
発見光度 18.4等
発見者 A. Boattini (Mt. Lemmon)

・ 写真集

・ 軌道要素

T 2011 June 3.3490 TT                                   MPC
q   8.031839             (2000.0)            P               Q
                   Peri.   39.6442      +0.9410115      +0.2351942
                   Node    54.9325      +0.1816851      -0.9577088
e   1.0            Incl.  162.7090      +0.2854609      -0.1657633
From 142 observations 2008 Sept. 29-Nov. 25.

・ 星図

・ 光度変化

        m1 = 3.5 + 5 logΔ + 10.0 log r

---------------------------------------------------------------------

軌道要素はM.P.E.C. 2008-W73に掲載されたものです。
星図はステラナビゲータ Ver.8 (アストロアーツ) で作成したものです。
光度グラフはComet for Windowsで作成したものです。

---------------------------------------------------------------------

Copyright(C) 1995-2008 Seiichi Yoshida (comet@aerith.net). All rights reserved.